| time (UTC) | temp F | wind direction | speed knots | gust knots | rain 1hr in | rain 24hr in | rain mn in | humidity % | barometer mb |
| 20260906121801 | 77 | 299 | 3.5 | 8.7 | 0.00 | 0.00 | 0.00 | 96 | 1011.4 |
| 20260906121301 | 77 | 242 | 1.7 | 7.8 | 0.00 | 0.00 | 0.00 | 96 | 1011.3 |
| 20260906120801 | 77 | 278 | 6.1 | 7.8 | 0.00 | 0.00 | 0.00 | 96 | 1011.4 |
| 20260906120301 | 77 | 271 | 7.0 | 5.2 | 0.00 | 0.00 | 0.00 | 96 | 1011.5 |
| 20260906115801 | 77 | 316 | 3.5 | 4.3 | 0.00 | 0.00 | 0.00 | 96 | 1011.6 |
| 20260906115301 | 77 | 252 | 0.0 | 4.3 | 0.00 | 0.00 | 0.00 | 96 | 1011.8 |
| 20260906114801 | 77 | 292 | 0.9 | 6.1 | 0.00 | 0.00 | 0.00 | 96 | 1011.8 |
| 20260906114301 | 77 | 317 | 0.0 | 4.3 | 0.00 | 0.00 | 0.00 | 96 | 1011.8 |
| 20260906113801 | 77 | 316 | 2.6 | 4.3 | 0.00 | 0.00 | 0.00 | 96 | 1011.9 |
| 20260906113301 | 77 | 293 | 0.0 | 4.3 | 0.00 | 0.00 | 0.00 | 96 | 1011.8 |
| 20260906112801 | 77 | 304 | 0.0 | 3.5 | 0.00 | 0.00 | 0.00 | 96 | 1011.8 |
| 20260906112301 | 77 | 265 | 0.0 | 4.3 | 0.00 | 0.00 | 0.00 | 96 | 1011.7 |
| 20260906111801 | 77 | 288 | 1.7 | 6.1 | 0.00 | 0.00 | 0.00 | 95 | 1011.6 |
| 20260906111301 | 77 | 244 | 0.9 | 7.0 | 0.00 | 0.00 | 0.00 | 95 | 1011.4 |
| 20260906110801 | 77 | 252 | 2.6 | 7.0 | 0.00 | 0.00 | 0.00 | 95 | 1011.3 |
| 20260906110301 | 77 | 285 | 5.2 | 5.2 | 0.00 | 0.00 | 0.00 | 95 | 1011.1 |
| 20260906105801 | 77 | 264 | 2.6 | 6.1 | 0.00 | 0.00 | 0.00 | 95 | 1011.0 |
| 20260906105301 | 77 | 261 | 3.5 | 5.2 | 0.00 | 0.00 | 0.00 | 95 | 1010.9 |
| 20260906104801 | 77 | 282 | 1.7 | 5.2 | 0.00 | 0.00 | 0.00 | 95 | 1010.9 |
| 20260906104301 | 77 | 310 | 3.5 | 5.2 | 0.00 | 0.00 | 0.00 | 95 | 1010.8 |
| 20260906103801 | 77 | 256 | 1.7 | 4.3 | 0.00 | 0.00 | 0.00 | 94 | 1010.7 |
| 20260906103301 | 77 | 269 | 2.6 | 3.5 | 0.00 | 0.00 | 0.00 | 94 | 1010.6 |
| 20260906102801 | 77 | 252 | 1.7 | 4.3 | 0.00 | 0.00 | 0.00 | 94 | 1010.6 |
| 20260906102301 | 77 | 283 | 2.6 | 2.6 | 0.00 | 0.00 | 0.00 | 94 | 1010.6 |
| 20260906101801 | 77 | 211 | 0.0 | 3.5 | 0.00 | 0.00 | 0.00 | 94 | 1010.6 |
| 20260906101300 | 77 | 228 | 2.6 | 3.5 | 0.00 | 0.00 | 0.00 | 94 | 1010.7 |
| 20260906100800 | 77 | 194 | 0.0 | 4.3 | 0.00 | 0.00 | 0.00 | 94 | 1010.7 |
| 20260906100300 | 77 | 203 | 0.0 | 3.5 | 0.00 | 0.00 | 0.00 | 94 | 1010.7 |
| 20260906095800 | 77 | 312 | 0.0 | 5.2 | 0.00 | 0.00 | 0.00 | 93 | 1010.7 |
| 20260906095300 | 78 | 262 | 1.7 | 5.2 | 0.00 | 0.00 | 0.00 | 93 | 1010.6 |
| 20260906094800 | 78 | 275 | 2.6 | 6.1 | 0.00 | 0.00 | 0.00 | 93 | 1010.5 |
| 20260906094300 | 78 | 280 | 3.5 | 7.0 | 0.00 | 0.00 | 0.00 | 93 | 1010.4 |
| 20260906093800 | 78 | 272 | 3.5 | 7.8 | 0.00 | 0.00 | 0.00 | 93 | 1010.4 |
| 20260906093300 | 78 | 278 | 4.3 | 7.0 | 0.00 | 0.00 | 0.00 | 93 | 1010.4 |
| 20260906092800 | 78 | 276 | 6.1 | 6.1 | 0.00 | 0.00 | 0.00 | 93 | 1010.4 |
| 20260906092300 | 78 | 244 | 2.6 | 7.0 | 0.00 | 0.00 | 0.00 | 93 | 1010.3 |
| 20260906091800 | 78 | 268 | 2.6 | 7.0 | 0.00 | 0.00 | 0.00 | 93 | 1010.3 |
| 20260906091300 | 78 | 258 | 2.6 | 7.0 | 0.00 | 0.00 | 0.00 | 93 | 1010.3 |
| 20260906090800 | 78 | 282 | 4.3 | 6.1 | 0.00 | 0.00 | 0.00 | 92 | 1010.3 |
| 20260906090300 | 78 | 271 | 3.5 | 7.0 | 0.00 | 0.00 | 0.00 | 92 | 1010.2 |
| 20260906085800 | 78 | 262 | 1.7 | 5.2 | 0.00 | 0.00 | 0.00 | 92 | 1010.3 |
| 20260906085300 | 78 | 288 | 2.6 | 5.2 | 0.00 | 0.00 | 0.00 | 92 | 1010.3 |
| 20260906084800 | 78 | 299 | 3.5 | 6.1 | 0.00 | 0.00 | 0.00 | 92 | 1010.3 |
| 20260906084300 | 78 | 284 | 4.3 | 6.1 | 0.00 | 0.00 | 0.00 | 92 | 1010.3 |
| 20260906083800 | 78 | 258 | 1.7 | 4.3 | 0.00 | 0.00 | 0.00 | 92 | 1010.3 |
| 20260906083300 | 78 | 307 | 3.5 | 5.2 | 0.00 | 0.00 | 0.00 | 92 | 1010.2 |
| 20260906082800 | 78 | 303 | 2.6 | 5.2 | 0.00 | 0.00 | 0.00 | 91 | 1010.2 |
| 20260906082300 | 78 | 226 | 0.0 | 4.3 | 0.00 | 0.00 | 0.00 | 91 | 1010.2 |
| 20260906081800 | 78 | 306 | 1.7 | 6.1 | 0.00 | 0.00 | 0.00 | 91 | 1010.2 |
| 20260906081300 | 78 | 295 | 2.6 | 7.0 | 0.00 | 0.00 | 0.00 | 91 | 1010.3 |
| 20260906080800 | 78 | 328 | 1.7 | 7.0 | 0.00 | 0.00 | 0.00 | 91 | 1010.3 |
| 20260906080300 | 78 | 268 | 3.5 | 6.1 | 0.00 | 0.00 | 0.00 | 91 | 1010.3 |
| 20260906075800 | 78 | 273 | 4.3 | 6.1 | 0.00 | 0.00 | 0.00 | 90 | 1010.4 |
| 20260906075300 | 79 | 313 | 3.5 | 6.1 | 0.00 | 0.00 | 0.00 | 90 | 1010.3 |
| 20260906074800 | 79 | 312 | 4.3 | 7.0 | 0.00 | 0.00 | 0.00 | 90 | 1010.4 |
| 20260906074300 | 79 | 270 | 4.3 | 7.0 | 0.00 | 0.00 | 0.00 | 90 | 1010.4 |
| 20260906073800 | 79 | 297 | 1.7 | 7.8 | 0.00 | 0.00 | 0.00 | 90 | 1010.4 |
| 20260906073300 | 79 | 302 | 1.7 | 8.7 | 0.00 | 0.00 | 0.00 | 90 | 1010.4 |
| 20260906072800 | 79 | 261 | 5.2 | 7.0 | 0.00 | 0.00 | 0.00 | 90 | 1010.4 |
| 20260906072300 | 79 | 298 | 0.9 | 7.8 | 0.00 | 0.00 | 0.00 | 90 | 1010.3 |
| 20260906071800 | 79 | 302 | 0.9 | 7.8 | 0.00 | 0.00 | 0.00 | 90 | 1010.4 |
| 20260906071300 | 79 | 306 | 4.3 | 7.8 | 0.00 | 0.00 | 0.00 | 90 | 1010.4 |
| 20260906070800 | 79 | 265 | 2.6 | 7.0 | 0.00 | 0.00 | 0.00 | 90 | 1010.5 |
| 20260906070300 | 79 | 278 | 4.3 | 7.8 | 0.00 | 0.00 | 0.00 | 90 | 1010.5 |
| 20260906065800 | 79 | 285 | 4.3 | 7.8 | 0.00 | 0.00 | 0.00 | 90 | 1010.4 |
| 20260906065300 | 79 | 272 | 4.3 | 7.0 | 0.00 | 0.00 | 0.00 | 90 | 1010.4 |
| 20260906064800 | 79 | 297 | 1.7 | 8.7 | 0.00 | 0.00 | 0.00 | 90 | 1010.4 |
| 20260906064300 | 79 | 307 | 4.3 | 7.8 | 0.00 | 0.00 | 0.00 | 90 | 1010.5 |
| 20260906063800 | 79 | 266 | 4.3 | 8.7 | 0.00 | 0.00 | 0.00 | 90 | 1010.5 |
| 20260906063300 | 79 | 293 | 5.2 | 7.8 | 0.00 | 0.00 | 0.00 | 90 | 1010.5 |
| 20260906062800 | 79 | 300 | 6.1 | 7.8 | 0.00 | 0.00 | 0.00 | 90 | 1010.6 |
| 20260906062259 | 79 | 283 | 4.3 | 8.7 | 0.00 | 0.00 | 0.00 | 90 | 1010.5 |
| 20260906061800 | 79 | 234 | 4.3 | 6.1 | 0.00 | 0.00 | 0.00 | 90 | 1010.6 |
| 20260906061259 | 79 | 261 | 3.5 | 7.8 | 0.00 | 0.00 | 0.00 | 90 | 1010.7 |
| 20260906060759 | 79 | 275 | 5.2 | 7.0 | 0.00 | 0.00 | 0.00 | 90 | 1010.8 |
| 20260906060300 | 79 | 265 | 4.3 | 7.8 | 0.00 | 0.00 | 0.00 | 90 | 1010.8 |
| 20260906055759 | 79 | 278 | 2.6 | 5.2 | 0.00 | 0.00 | 0.00 | 90 | 1010.7 |
| 20260906055259 | 79 | 283 | 1.7 | 6.1 | 0.00 | 0.00 | 0.00 | 90 | 1010.7 |
| 20260906054759 | 79 | 258 | 3.5 | 7.0 | 0.00 | 0.00 | 0.00 | 90 | 1010.9 |
| 20260906054259 | 79 | 271 | 3.5 | 6.1 | 0.00 | 0.00 | 0.00 | 90 | 1011.0 |
| 20260906053759 | 79 | 251 | 2.6 | 6.1 | 0.00 | 0.00 | 0.00 | 90 | 1011.1 |
| 20260906053259 | 79 | 244 | 0.0 | 6.1 | 0.00 | 0.00 | 0.00 | 90 | 1011.1 |
| 20260906052759 | 79 | 237 | 2.6 | 5.2 | 0.00 | 0.00 | 0.00 | 90 | 1011.1 |
| 20260906052259 | 79 | 282 | 1.7 | 7.0 | 0.00 | 0.00 | 0.00 | 91 | 1011.1 |
| 20260906051759 | 79 | 302 | 1.7 | 6.1 | 0.00 | 0.00 | 0.00 | 91 | 1011.2 |
| 20260906051259 | 79 | 248 | 0.9 | 7.0 | 0.00 | 0.00 | 0.00 | 91 | 1011.1 |
| 20260906050759 | 79 | 255 | 3.5 | 7.8 | 0.00 | 0.00 | 0.00 | 91 | 1011.2 |
| 20260906050259 | 79 | 244 | 5.2 | 7.0 | 0.00 | 0.00 | 0.00 | 91 | 1011.2 |
| 20260906045759 | 79 | 259 | 1.7 | 7.0 | 0.00 | 0.00 | 0.00 | 91 | 1011.2 |
| 20260906045259 | 79 | 244 | 4.3 | 6.1 | 0.00 | 0.00 | 0.00 | 91 | 1011.1 |
| 20260906044759 | 79 | 256 | 3.5 | 7.0 | 0.00 | 0.00 | 0.00 | 91 | 1011.1 |
| 20260906044259 | 79 | 271 | 1.7 | 7.8 | 0.00 | 0.00 | 0.00 | 90 | 1011.1 |
| 20260906043759 | 79 | 194 | 1.7 | 7.0 | 0.00 | 0.00 | 0.00 | 90 | 1011.0 |
| 20260906043259 | 79 | 235 | 6.1 | 6.1 | 0.00 | 0.00 | 0.00 | 90 | 1010.9 |
| 20260906042759 | 79 | 240 | 3.5 | 7.0 | 0.00 | 0.00 | 0.00 | 90 | 1011.0 |
| 20260906042259 | 79 | 216 | 4.3 | 7.8 | 0.00 | 0.00 | 0.00 | 90 | 1011.1 |
| 20260906041759 | 79 | 249 | 3.5 | 7.0 | 0.00 | 0.00 | 0.00 | 90 | 1011.1 |
| 20260906041259 | 79 | 238 | 2.6 | 6.1 | 0.00 | 0.00 | 0.00 | 89 | 1011.2 |
| 20260906040759 | 79 | 241 | 4.3 | 6.1 | 0.00 | 0.00 | 0.00 | 89 | 1011.2 |
| 20260906040259 | 79 | 237 | 3.5 | 6.1 | 0.00 | 0.00 | 0.00 | 89 | 1011.3 |
| 20260906035759 | 79 | 237 | 3.5 | 5.2 | 0.00 | 0.00 | 0.00 | 88 | 1011.4 |
| 20260906035259 | 79 | 244 | 1.7 | 7.0 | 0.00 | 0.00 | 0.00 | 88 | 1011.5 |
| 20260906034759 | 79 | 248 | 1.7 | 6.1 | 0.00 | 0.00 | 0.00 | 88 | 1011.4 |
| 20260906034259 | 80 | 234 | 5.2 | 7.0 | 0.00 | 0.00 | 0.00 | 88 | 1011.4 |
| 20260906033759 | 80 | 236 | 4.3 | 7.0 | 0.00 | 0.00 | 0.00 | 87 | 1011.5 |
| 20260906033259 | 80 | 256 | 2.6 | 7.8 | 0.00 | 0.00 | 0.00 | 87 | 1011.6 |
| 20260906032759 | 80 | 244 | 5.2 | 7.0 | 0.00 | 0.00 | 0.00 | 87 | 1011.7 |
| 20260906032259 | 80 | 210 | 3.5 | 6.1 | 0.00 | 0.00 | 0.00 | 87 | 1011.7 |
| 20260906031759 | 80 | 227 | 3.5 | 7.0 | 0.00 | 0.00 | 0.00 | 87 | 1011.8 |
| 20260906031259 | 80 | 217 | 6.1 | 6.1 | 0.00 | 0.00 | 0.00 | 87 | 1011.8 |
| 20260906030759 | 80 | 240 | 4.3 | 6.1 | 0.00 | 0.00 | 0.00 | 86 | 1011.8 |
| 20260906030259 | 80 | 238 | 4.3 | 6.1 | 0.00 | 0.00 | 0.00 | 86 | 1011.8 |
| 20260906025759 | 80 | 229 | 3.5 | 7.0 | 0.00 | 0.00 | 0.00 | 86 | 1011.9 |
| 20260906025259 | 80 | 220 | 2.6 | 7.0 | 0.00 | 0.00 | 0.00 | 86 | 1011.9 |
| 20260906024759 | 80 | 226 | 4.3 | 7.0 | 0.00 | 0.00 | 0.00 | 86 | 1011.8 |
| 20260906024259 | 80 | 234 | 4.3 | 5.2 | 0.00 | 0.00 | 0.00 | 86 | 1011.9 |
| 20260906023759 | 80 | 210 | 1.7 | 4.3 | 0.00 | 0.00 | 0.00 | 86 | 1011.9 |
| 20260906023259 | 80 | 187 | 0.0 | 3.5 | 0.00 | 0.00 | 0.00 | 86 | 1011.9 |
| 20260906022758 | 80 | 205 | 1.7 | 2.6 | 0.00 | 0.00 | 0.00 | 86 | 1012.0 |
| 20260906022258 | 80 | 197 | 0.9 | 3.5 | 0.00 | 0.00 | 0.00 | 86 | 1012.0 |
| 20260906021758 | 80 | 206 | 0.0 | 6.1 | 0.00 | 0.00 | 0.00 | 86 | 1011.9 |
| 20260906021258 | 80 | 182 | 0.9 | 6.1 | 0.00 | 0.00 | 0.00 | 86 | 1011.8 |
| 20260906020758 | 80 | 201 | 3.5 | 5.2 | 0.00 | 0.00 | 0.00 | 86 | 1011.6 |
| 20260906020258 | 80 | 203 | 1.7 | 5.2 | 0.00 | 0.00 | 0.00 | 86 | 1011.6 |
| 20260906015758 | 80 | 191 | 0.9 | 4.3 | 0.00 | 0.00 | 0.00 | 86 | 1011.7 |
| 20260906015258 | 80 | 168 | 2.6 | 5.2 | 0.00 | 0.00 | 0.00 | 85 | 1011.6 |
| 20260906014758 | 80 | 187 | 3.5 | 5.2 | 0.00 | 0.00 | 0.00 | 85 | 1011.5 |
| 20260906014258 | 80 | 176 | 2.6 | 3.5 | 0.00 | 0.00 | 0.00 | 85 | 1011.6 |
| 20260906013758 | 80 | 164 | 1.7 | 3.5 | 0.00 | 0.00 | 0.00 | 85 | 1011.5 |
| 20260906013258 | 80 | 124 | 0.0 | 2.6 | 0.00 | 0.00 | 0.00 | 85 | 1011.4 |
| 20260906012758 | 80 | 158 | 1.7 | 4.3 | 0.00 | 0.00 | 0.00 | 85 | 1011.3 |
| 20260906012258 | 80 | 208 | 0.0 | 4.3 | 0.00 | 0.00 | 0.00 | 85 | 1011.2 |
| 20260906011758 | 80 | 133 | 0.0 | 3.5 | 0.00 | 0.00 | 0.00 | 84 | 1011.1 |
| 20260906011258 | 80 | 139 | 0.9 | 3.5 | 0.00 | 0.00 | 0.00 | 84 | 1011.1 |
| 20260906010758 | 81 | 163 | 1.7 | 5.2 | 0.00 | 0.00 | 0.00 | 84 | 1010.9 |
| 20260906010258 | 80 | 173 | 0.0 | 7.0 | 0.00 | 0.00 | 0.00 | 84 | 1010.8 |
| 20260906005758 | 80 | 152 | 1.7 | 6.1 | 0.00 | 0.00 | 0.00 | 83 | 1010.8 |
| 20260906005258 | 81 | 197 | 2.6 | 7.0 | 0.00 | 0.00 | 0.00 | 83 | 1010.7 |
| 20260906004758 | 81 | 232 | 0.9 | 5.2 | 0.00 | 0.00 | 0.00 | 83 | 1010.7 |
| 20260906004258 | 81 | 182 | 2.6 | 5.2 | 0.00 | 0.00 | 0.00 | 83 | 1010.6 |
| 20260906003758 | 81 | 165 | 2.6 | 5.2 | 0.00 | 0.00 | 0.00 | 82 | 1010.6 |
| 20260906003258 | 81 | 204 | 0.0 | 5.2 | 0.00 | 0.00 | 0.00 | 82 | 1010.5 |
| 20260906002758 | 81 | 238 | 2.6 | 5.2 | 0.00 | 0.00 | 0.00 | 82 | 1010.6 |
| 20260906002258 | 81 | 152 | 0.0 | 5.2 | 0.00 | 0.00 | 0.00 | 81 | 1010.6 |
| 20260906001758 | 82 | 207 | 2.6 | 6.1 | 0.00 | 0.00 | 0.00 | 81 | 1010.5 |
| 20260906001258 | 81 | 194 | 4.3 | 7.0 | 0.00 | 0.00 | 0.00 | 80 | 1010.4 |
| 20260906000758 | 82 | 203 | 4.3 | 5.2 | 0.00 | 0.00 | 0.00 | 80 | 1010.3 |
| 20260906000258 | 82 | 189 | 5.2 | 6.1 | 0.00 | 0.00 | 0.00 | 80 | 1010.2 |
| 20260905235758 | 82 | 192 | 5.2 | 4.3 | 0.00 | 0.00 | 0.00 | 79 | 1010.2 |
| 20260905235258 | 82 | 225 | 0.9 | 9.6 | 0.00 | 0.00 | 0.00 | 79 | 1010.3 |
| 20260905234758 | 82 | 145 | 2.6 | 7.8 | 0.00 | 0.00 | 0.00 | 79 | 1010.3 |
| 20260905234258 | 83 | 179 | 2.6 | 5.2 | 0.00 | 0.00 | 0.00 | 79 | 1010.3 |
| 20260905233758 | 83 | 189 | 3.5 | 7.0 | 0.00 | 0.00 | 0.00 | 78 | 1010.2 |
| 20260905233258 | 83 | 208 | 0.9 | 7.8 | 0.00 | 0.00 | 0.00 | 78 | 1010.4 |
| 20260905232758 | 83 | 145 | 1.7 | 7.8 | 0.00 | 0.00 | 0.00 | 78 | 1010.4 |
| 20260905232258 | 83 | 170 | 7.0 | 6.1 | 0.00 | 0.00 | 0.00 | 78 | 1010.3 |
| 20260905231758 | 84 | 168 | 4.3 | 5.2 | 0.00 | 0.00 | 0.00 | 79 | 1010.3 |
| 20260905231258 | 84 | 156 | 0.0 | 5.2 | 0.00 | 0.00 | 0.00 | 79 | 1010.2 |
| 20260905230758 | 84 | 182 | 4.3 | 5.2 | 0.00 | 0.00 | 0.00 | 79 | 1010.2 |
| 20260905230258 | 84 | 155 | 0.9 | 5.2 | 0.00 | 0.00 | 0.00 | 79 | 1010.2 |
| 20260905225758 | 84 | 177 | 3.5 | 3.5 | 0.00 | 0.00 | 0.00 | 79 | 1010.4 |
| 20260905225257 | 84 | 182 | 2.6 | 5.2 | 0.00 | 0.00 | 0.00 | 78 | 1010.5 |
| 20260905224757 | 84 | 155 | 0.0 | 6.1 | 0.00 | 0.00 | 0.00 | 78 | 1010.6 |
| 20260905224257 | 84 | 173 | 2.6 | 7.0 | 0.00 | 0.00 | 0.00 | 77 | 1010.6 |
| 20260905223757 | 85 | 159 | 2.6 | 6.1 | 0.00 | 0.00 | 0.00 | 77 | 1010.7 |
| 20260905223257 | 85 | 194 | 2.6 | 7.8 | 0.00 | 0.00 | 0.00 | 76 | 1010.6 |
| 20260905222757 | 85 | 159 | 3.5 | 7.8 | 0.00 | 0.00 | 0.00 | 76 | 1010.8 |
| 20260905222257 | 85 | 145 | 3.5 | 7.8 | 0.00 | 0.00 | 0.00 | 76 | 1010.8 |
| 20260905221757 | 85 | 248 | 3.5 | 6.1 | 0.00 | 0.00 | 0.00 | 76 | 1010.8 |
| 20260905221257 | 85 | 193 | 3.5 | 9.6 | 0.00 | 0.00 | 0.00 | 77 | 1010.8 |
| 20260905220757 | 85 | 91 | 3.5 | 10.4 | 0.00 | 0.00 | 0.00 | 76 | 1010.8 |
| 20260905220257 | 85 | 187 | 5.2 | 9.6 | 0.00 | 0.00 | 0.00 | 76 | 1010.8 |
| 20260905215757 | 86 | 179 | 2.6 | 11.3 | 0.00 | 0.00 | 0.00 | 74 | 1010.8 |
| 20260905215257 | 87 | 177 | 5.2 | 10.4 | 0.00 | 0.00 | 0.00 | 72 | 1010.9 |
| 20260905214757 | 88 | 200 | 5.2 | 0.0 | 0.00 | 0.00 | 0.00 | 68 | 1010.9 |
| 20260905214257 | 88 | 293 | 0.0 | 2.6 | 0.00 | 0.00 | 0.00 | 64 | 1011.0 |
| 20260905213757 | 89 | 295 | 0.0 | 5.2 | 0.00 | 0.00 | 0.00 | 64 | 1011.0 |
| 20260905213257 | 88 | 343 | 1.7 | 5.2 | 0.00 | 0.00 | 0.00 | 62 | 1011.0 |
| 20260905212757 | 88 | 310 | 3.5 | 5.2 | 0.00 | 0.00 | 0.00 | 63 | 1011.0 |
| 20260905212257 | 88 | 348 | 0.0 | 4.3 | 0.00 | 0.00 | 0.00 | 62 | 1011.0 |
| 20260905211757 | 89 | 331 | 1.7 | 5.2 | 0.00 | 0.00 | 0.00 | 63 | 1011.0 |
| 20260905211257 | 89 | 258 | 0.0 | 4.3 | 0.00 | 0.00 | 0.00 | 63 | 1011.0 |
| 20260905210757 | 89 | 347 | 0.0 | 5.2 | 0.00 | 0.00 | 0.00 | 64 | 1011.0 |
| 20260905210257 | 89 | 300 | 0.9 | 7.8 | 0.00 | 0.00 | 0.00 | 63 | 1011.0 |
| 20260905205757 | 89 | 309 | 2.6 | 6.1 | 0.00 | 0.00 | 0.00 | 60 | 1010.8 |
| 20260905205257 | 89 | 315 | 1.7 | 7.8 | 0.00 | 0.00 | 0.00 | 60 | 1010.9 |
| 20260905204757 | 90 | 321 | 2.6 | 7.0 | 0.00 | 0.00 | 0.00 | 58 | 1010.9 |
| 20260905204257 | 90 | 295 | 3.5 | 10.4 | 0.00 | 0.00 | 0.00 | 59 | 1010.8 |
| 20260905203757 | 89 | 302 | 4.3 | 7.8 | 0.00 | 0.00 | 0.00 | 60 | 1010.8 |
| 20260905203257 | 89 | 303 | 3.5 | 8.7 | 0.00 | 0.00 | 0.00 | 61 | 1010.8 |
| 20260905202757 | 89 | 304 | 7.0 | 10.4 | 0.00 | 0.00 | 0.00 | 61 | 1010.7 |
| 20260905202257 | 89 | 317 | 6.1 | 11.3 | 0.00 | 0.00 | 0.00 | 60 | 1010.7 |
| 20260905201757 | 90 | 306 | 4.3 | 10.4 | 0.00 | 0.00 | 0.00 | 59 | 1010.7 |
| 20260905201257 | 90 | 327 | 5.2 | 9.6 | 0.00 | 0.00 | 0.00 | 59 | 1010.7 |
| 20260905200757 | 90 | 272 | 7.0 | 9.6 | 0.00 | 0.00 | 0.00 | 59 | 1010.7 |
| 20260905200257 | 90 | 295 | 6.1 | 10.4 | 0.00 | 0.00 | 0.00 | 59 | 1010.7 |
| 20260905195757 | 91 | 303 | 7.0 | 8.7 | 0.00 | 0.00 | 0.00 | 59 | 1010.7 |
| 20260905195257 | 90 | 320 | 2.6 | 9.6 | 0.00 | 0.00 | 0.00 | 59 | 1010.8 |
| 20260905194757 | 90 | 295 | 7.8 | 9.6 | 0.00 | 0.00 | 0.00 | 59 | 1010.9 |
| 20260905194257 | 90 | 319 | 4.3 | 10.4 | 0.00 | 0.00 | 0.00 | 59 | 1010.8 |
| 20260905193757 | 90 | 288 | 6.1 | 13.0 | 0.00 | 0.00 | 0.00 | 60 | 1010.8 |
| 20260905193257 | 90 | 265 | 8.7 | 11.3 | 0.00 | 0.00 | 0.00 | 60 | 1011.0 |
| 20260905192757 | 90 | 252 | 7.0 | 9.6 | 0.00 | 0.00 | 0.00 | 59 | 1011.2 |
| 20260905192257 | 90 | 275 | 5.2 | 10.4 | 0.00 | 0.00 | 0.00 | 60 | 1011.3 |
| 20260905191757 | 90 | 295 | 3.5 | 8.7 | 0.00 | 0.00 | 0.00 | 61 | 1011.4 |
| 20260905191257 | 90 | 279 | 2.6 | 8.7 | 0.00 | 0.00 | 0.00 | 62 | 1011.6 |
| 20260905190756 | 89 | 334 | 5.2 | 7.8 | 0.00 | 0.00 | 0.00 | 63 | 1011.4 |
| 20260905190256 | 89 | 324 | 1.7 | 8.7 | 0.00 | 0.00 | 0.00 | 64 | 1011.3 |
| 20260905185756 | 89 | 344 | 7.0 | 8.7 | 0.00 | 0.00 | 0.00 | 63 | 1011.3 |
| 20260905185256 | 89 | 16 | 4.3 | 10.4 | 0.00 | 0.00 | 0.00 | 63 | 1011.4 |
| 20260905184756 | 89 | 360 | 4.3 | 9.6 | 0.00 | 0.00 | 0.00 | 64 | 1011.4 |
| 20260905184256 | 89 | 265 | 5.2 | 7.8 | 0.00 | 0.00 | 0.00 | 64 | 1011.5 |
| 20260905183756 | 89 | 302 | 1.7 | 7.0 | 0.00 | 0.00 | 0.00 | 64 | 1011.7 |
| 20260905183256 | 89 | 220 | 0.9 | 6.1 | 0.00 | 0.00 | 0.00 | 64 | 1011.8 |
| 20260905182756 | 88 | 280 | 0.9 | 9.6 | 0.00 | 0.00 | 0.00 | 63 | 1011.8 |
| 20260905182256 | 88 | 321 | 7.0 | 9.6 | 0.00 | 0.00 | 0.00 | 63 | 1011.9 |
| 20260905181756 | 88 | 288 | 4.3 | 11.3 | 0.00 | 0.00 | 0.00 | 65 | 1012.0 |
| 20260905181256 | 88 | 337 | 0.0 | 4.3 | 0.00 | 0.00 | 0.00 | 65 | 1012.0 |
| 20260905180756 | 88 | 286 | 0.0 | 7.0 | 0.00 | 0.00 | 0.00 | 65 | 1012.2 |
| 20260905180256 | 88 | 286 | 0.0 | 9.6 | 0.00 | 0.00 | 0.00 | 64 | 1012.1 |
| 20260905175756 | 88 | 271 | 3.5 | 11.3 | 0.00 | 0.00 | 0.00 | 67 | 1012.1 |
| 20260905175256 | 88 | 313 | 4.3 | 6.1 | 0.00 | 0.00 | 0.00 | 66 | 1012.2 |
| 20260905174756 | 88 | 345 | 3.5 | 8.7 | 0.00 | 0.00 | 0.00 | 67 | 1012.2 |
| 20260905174256 | 87 | 286 | 2.6 | 8.7 | 0.00 | 0.00 | 0.00 | 68 | 1012.4 |
| 20260905173756 | 87 | 286 | 7.0 | 7.8 | 0.00 | 0.00 | 0.00 | 68 | 1012.6 |
| 20260905173256 | 87 | 268 | 3.5 | 12.2 | 0.00 | 0.00 | 0.00 | 69 | 1012.6 |
| 20260905172756 | 87 | 309 | 3.5 | 9.6 | 0.00 | 0.00 | 0.00 | 70 | 1012.6 |
| 20260905172256 | 87 | 261 | 2.6 | 8.7 | 0.00 | 0.00 | 0.00 | 69 | 1012.5 |
| 20260905171756 | 87 | 295 | 4.3 | 10.4 | 0.00 | 0.00 | 0.00 | 69 | 1012.6 |
| 20260905171256 | 86 | 292 | 3.5 | 10.4 | 0.00 | 0.00 | 0.00 | 71 | 1012.7 |
| 20260905170756 | 86 | 244 | 2.6 | 12.2 | 0.00 | 0.00 | 0.00 | 71 | 1012.8 |
| 20260905170256 | 86 | 302 | 2.6 | 5.2 | 0.00 | 0.00 | 0.00 | 70 | 1012.9 |
| 20260905165756 | 85 | 300 | 0.0 | 12.2 | 0.00 | 0.00 | 0.00 | 74 | 1013.0 |
| 20260905165256 | 85 | 269 | 4.3 | 7.8 | 0.00 | 0.00 | 0.00 | 74 | 1013.2 |
| 20260905164756 | 85 | 31 | 0.9 | 7.0 | 0.00 | 0.00 | 0.00 | 73 | 1013.3 |
| 20260905164256 | 85 | 334 | 4.3 | 9.6 | 0.00 | 0.00 | 0.00 | 73 | 1013.4 |
| 20260905163756 | 85 | 289 | 5.2 | 7.0 | 0.00 | 0.00 | 0.00 | 74 | 1013.6 |
| 20260905163256 | 85 | 15 | 0.0 | 8.7 | 0.00 | 0.00 | 0.00 | 75 | 1013.6 |
| 20260905162756 | 85 | 312 | 6.1 | 8.7 | 0.00 | 0.00 | 0.00 | 75 | 1013.7 |
| 20260905162256 | 85 | 276 | 1.7 | 6.1 | 0.00 | 0.00 | 0.00 | 77 | 1013.7 |
| 20260905161756 | 84 | 276 | 1.7 | 7.8 | 0.00 | 0.00 | 0.00 | 79 | 1013.8 |
| 20260905161256 | 84 | 295 | 5.2 | 8.7 | 0.00 | 0.00 | 0.00 | 79 | 1013.9 |
| 20260905160756 | 83 | 290 | 5.2 | 8.7 | 0.00 | 0.00 | 0.00 | 80 | 1014.1 |
| 20260905160256 | 83 | 286 | 0.9 | 8.7 | 0.00 | 0.00 | 0.00 | 81 | 1014.2 |
| 20260905155756 | 83 | 327 | 2.6 | 10.4 | 0.00 | 0.00 | 0.00 | 80 | 1014.1 |
| 20260905155256 | 83 | 278 | 4.3 | 7.8 | 0.00 | 0.00 | 0.00 | 84 | 1014.2 |
| 20260905154756 | 82 | 324 | 4.3 | 7.8 | 0.00 | 0.00 | 0.00 | 85 | 1014.4 |
| 20260905154256 | 82 | 343 | 6.1 | 9.6 | 0.00 | 0.00 | 0.00 | 85 | 1014.5 |
| 20260905153756 | 82 | 343 | 5.2 | 7.8 | 0.00 | 0.00 | 0.00 | 86 | 1014.4 |
| 20260905153255 | 82 | 317 | 5.2 | 9.6 | 0.00 | 0.00 | 0.00 | 87 | 1014.4 |
| 20260905152755 | 82 | 296 | 0.0 | 7.8 | 0.00 | 0.00 | 0.00 | 89 | 1014.5 |
| 20260905152255 | 82 | 309 | 4.3 | 7.8 | 0.00 | 0.00 | 0.00 | 90 | 1014.5 |
| 20260905151755 | 81 | 307 | 4.3 | 7.8 | 0.00 | 0.00 | 0.00 | 91 | 1014.4 |
| 20260905151255 | 81 | 347 | 3.5 | 7.8 | 0.00 | 0.00 | 0.00 | 93 | 1014.4 |
| 20260905150755 | 81 | 296 | 2.6 | 8.7 | 0.00 | 0.00 | 0.00 | 94 | 1014.4 |
| 20260905150255 | 81 | 317 | 5.2 | 8.7 | 0.00 | 0.00 | 0.00 | 96 | 1014.4 |
| 20260905145755 | 81 | 309 | 2.6 | 10.4 | 0.00 | 0.00 | 0.00 | 96 | 1014.3 |
| 20260905145255 | 80 | 268 | 8.7 | 7.8 | 0.00 | 0.00 | 0.00 | 96 | 1014.4 |
| 20260905144755 | 81 | 299 | 3.5 | 5.2 | 0.00 | 0.00 | 0.00 | 96 | 1014.4 |
| 20260905144255 | 80 | 309 | 2.6 | 6.1 | 0.00 | 0.00 | 0.00 | 97 | 1014.3 |
| 20260905143755 | 80 | 303 | 1.7 | 6.1 | 0.00 | 0.00 | 0.00 | 97 | 1014.4 |
| 20260905143255 | 80 | 273 | 3.5 | 7.8 | 0.00 | 0.00 | 0.00 | 97 | 1014.3 |
| 20260905142755 | 80 | 305 | 0.9 | 8.7 | 0.00 | 0.00 | 0.00 | 97 | 1014.3 |
| 20260905142255 | 80 | 297 | 4.3 | 6.1 | 0.00 | 0.00 | 0.00 | 98 | 1014.3 |
| 20260905141755 | 79 | 300 | 6.1 | 7.0 | 0.00 | 0.00 | 0.00 | 98 | 1014.3 |
| 20260905141255 | 79 | 326 | 3.5 | 7.0 | 0.00 | 0.00 | 0.00 | 98 | 1014.4 |
| 20260905140755 | 79 | 303 | 5.2 | 7.8 | 0.00 | 0.00 | 0.00 | 98 | 1014.5 |
| 20260905140255 | 78 | 302 | 2.6 | 7.8 | 0.00 | 0.00 | 0.00 | 99 | 1014.4 |
| 20260905135755 | 78 | 262 | 1.7 | 7.8 | 0.00 | 0.00 | 0.00 | 99 | 1014.4 |
| 20260905135255 | 78 | 268 | 4.3 | 7.0 | 0.00 | 0.00 | 0.00 | 99 | 1014.3 |
| 20260905134755 | 78 | 295 | 6.1 | 7.0 | 0.00 | 0.00 | 0.00 | 99 | 1014.3 |
| 20260905134255 | 78 | 310 | 6.1 | 6.1 | 0.00 | 0.00 | 0.00 | 99 | 1014.2 |
| 20260905133755 | 77 | 282 | 4.3 | 7.8 | 0.00 | 0.00 | 0.00 | 99 | 1014.2 |
| 20260905133255 | 77 | 283 | 3.5 | 7.0 | 0.00 | 0.00 | 0.00 | 99 | 1014.3 |
| 20260905132755 | 77 | 284 | 4.3 | 6.1 | 0.00 | 0.00 | 0.00 | 99 | 1014.2 |
| 20260905132255 | 77 | 288 | 4.3 | 6.1 | 0.00 | 0.00 | 0.00 | 99 | 1014.1 |
| 20260905131755 | 77 | 275 | 4.3 | 5.2 | 0.00 | 0.00 | 0.00 | 99 | 1014.1 |
| 20260905131255 | 77 | 269 | 3.5 | 2.6 | 0.00 | 0.00 | 0.00 | 99 | 1014.0 |
| 20260905130755 | 77 | 258 | 0.0 | 1.7 | 0.00 | 0.00 | 0.00 | 99 | 1014.0 |
| 20260905130255 | 76 | 265 | 0.0 | 3.5 | 0.00 | 0.00 | 0.00 | 99 | 1014.1 |
| 20260905125755 | 76 | 277 | 0.0 | 4.3 | 0.00 | 0.00 | 0.00 | 99 | 1014.1 |
| 20260905125255 | 76 | 296 | 1.7 | 4.3 | 0.00 | 0.00 | 0.00 | 99 | 1014.2 |
| 20260905124755 | 76 | 303 | 2.6 | 4.3 | 0.00 | 0.00 | 0.00 | 99 | 1014.2 |
| 20260905124255 | 76 | 293 | 0.0 | 4.3 | 0.00 | 0.00 | 0.00 | 99 | 1014.1 |
| 20260905123755 | 76 | 289 | 1.7 | 3.5 | 0.00 | 0.00 | 0.00 | 99 | 1014.0 |
| 20260905123255 | 76 | 352 | 1.7 | 4.3 | 0.00 | 0.00 | 0.00 | 99 | 1014.0 |
| 20260905122755 | 76 | 303 | 0.9 | 3.5 | 0.00 | 0.00 | 0.00 | 99 | 1014.0 |
| 20260905122255 | 76 | 307 | 1.7 | 3.5 | 0.00 | 0.00 | 0.00 | 99 | 1014.0 |